Starlink 3625

operational
NORAD ID: 51777 Int'l Des: 2022-017 Owner: SPXS Country: US Constellation: starlink
LEOCIRCULAR

关于 Starlink 3625

正在加载描述...

实时位置

正在加载3D地球...

即将过境

高度历史

Altitude vs Time

uPlot chart will show altitude changes over time

两行轨道根数

1 51777U 22017K 25259.11968568 .00001319 00000-0 10094-3 0 9997
2 51777 53.2183 42.7657 0001225 80.0065 280.1065 15.08845497196246
Epoch: Sep 16, 2025 • Age: 9 hours

当前状态

高度 544.3 km
速度 7.59 km/s
星下点 -15.62°S, 61.92°E
发射日期 Feb 25, 2022
运行时间 3.5 years
类型 internet

技术详情

分类 Payload
质量 297.00 kg
干质量 275.00 kg
总质量 297.00 kg
长度 0.20 m
直径 2.80 m
跨度 9.00 m
形状 Box + pan
制造商 SPXS
平台类型 Starlink
阶段状态 In Orbit
所有者/国家 SPXS/US

大型星座

Loading constellations...